Dewpoint
56 56 57 57 58 58 59 59 59 60 61 60 60 60 60 59 56 49 27 42 46 59 53 36 34 34 36 36 33 28 16 17 20 19 21 25 24 25 25 22 24 23 23 26 31
56 56 57 57 57 58 59 59 60 60 61 59 58 59 59 58 47 35 50 56 61 59 34 30 31 31 32 35 34 21 15 13 20 20 22 25 25 26 24 23 22 24 26 31 32
57 57 57 57 57 58 58 59 60 61 61 58 58 58 59 56 32 28 57 57 61 54 35 35 33 31 29 33 33 30 15 19 24 25 26 26 26 27 25 24 27 28 25 30 31
58 57 57 57 57 58 58 60 61 61 60 58 59 59 58 44 26 36 57 59 60 40 35 33 31 28 26 26 33 26 28 26 31 30 28 27 27 26 27 27 28 30 30 30 30
58 58 58 58 57 58 58 59 61 61 60 59 59 59 45 29 30 50 57 57 44 36 32 32 29 29 22 27 28 31 28 28 29 28 28 28 26 25 24 27 30 30 30 30 30
58 58 58 58 58 57 58 59 60 60 60 58 58 57 32 29 46 47 41 38 37 34 33 31 28 30 27 26 25 26 28 25 25 25 25 25 24 23 23 28 29 29 29 29 29
58 58 58 58 58 58 58 59 60 60 59 58 56 52 33 33 49 47 40 37 38 34 32 34 31 29 28 26 29 26 23 21 22 23 22 25 24 22 22 27 28 28 28 28 29
58 58 58 58 58 58 58 59 60 57 57 56 56 44 34 35 48 46 40 38 35 34 34 34 33 31 28 27 22 23 22 21 22 25 25 24 23 23 23 25 27 27 27 27 27
58 57 57 58 57 57 58 59 57 57 57 57 47 37 33 42 40 40 37 35 33 32 33 31 31 29 27 22 21 21 20 19 19 25 24 22 23 23 23 26 27 27 27 25 25
57 57 57 58 57 57 58 59 55 53 52 51 42 38 35 29 33 34 35 34 32 32 31 30 27 26 23 21 19 20 19 18 18 22 23 22 20 22 25 26 27 27 26 25 24
58 58 58 58 57 58 58 52 46 43 46 38 36 35 32 33 34 33 35 32 29 26 25 28 24 23 23 21 22 20 19 17 20 23 24 23 22 23 26 27 27 26 25 24 24
58 58 58 58 58 59 57 49 45 43 41 44 43 36 32 32 28 31 33 28 26 23 26 23 22 24 24 23 20 19 19 18 20 23 23 22 23 24 28 27 28 26 24 24 23
58 57 57 57 58 58 55 51 44 43 41 41 43 42 40 32 29 29 31 29 24 24 23 21 23 23 21 22 21 21 19 19 19 25 25 24 23 25 28 29 28 27 25 23 22
58 57 57 57 56 56 54 55 44 43 37 37 38 41 34 34 33 33 32 29 26 23 24 22 25 24 22 21 20 19 22 21 22 23 21 24 20 22 27 27 27 26 24 24 23
57 57 57 58 53 53 51 47 42 40 26 34 36 35 35 37 33 31 31 30 27 27 27 29 25 26 26 25 23 24 26 24 25 24 22 21 20 21 26 26 27 26 24 25 23
57 57 57 56 56 52 45 42 41 34 29 33 31 29 33 30 29 29 29 29 30 27 27 28 27 27 26 26 25 26 25 25 25 23 19 22 21 20 22 24 27 27 25 25 24
57 57 56 56 52 46 45 44 38 33 34 29 30 29 32 26 27 28 27 26 28 27 26 27 26 25 25 23 24 23 23 21 21 21 20 22 20 21 23 27 28 27 25 25 24
57 56 56 56 52 46 50 44 34 34 34 30 29 28 30 27 26 27 27 26 27 28 27 27 25 25 25 24 24 23 24 23 17 18 20 24 21 23 26 27 28 28 26 25 24
56 56 56 56 51 52 47 38 36 36 36 27 26 25 25 25 26 25 26 27 29 26 25 26 25 26 24 25 24 22 22 26 22 14 20 22 23 25 27 27 27 27 26 25 25
55 54 53 56 53 53 45 39 39 39 33 29 29 28 25 25 24 23 23 24 26 27 28 26 25 27 25 27 28 25 26 23 24 15 15 20 21 22 24 25 27 26 26 25 26
55 50 54 56 54 49 40 38 40 41 35 31 31 30 26 26 24 24 23 24 25 27 28 28 28 27 26 24 25 27 25 25 25 24 19 16 19 23 23 25 26 27 26 26 26
51 46 55 56 45 46 42 41 41 42 41 38 35 34 28 29 25 25 24 24 28 27 26 30 29 26 25 27 27 28 25 26 24 21 22 22 22 26 25 25 27 27 27 27 27
47 46 51 54 41 42 44 42 42 40 42 40 37 36 34 30 29 26 27 31 32 28 28 31 29 23 26 26 27 26 26 27 26 25 21 20 23 27 26 26 27 27 27 27 27
45 39 44 46 44 43 41 41 41 43 42 40 39 38 36 33 32 33 31 34 33 33 38 33 30 27 25 25 27 26 26 27 26 22 23 23 24 25 25 25 26 26 27 26 26
45 41 42 39 41 41 41 43 41 41 42 41 39 38 37 36 35 34 33 34 35 37 36 33 30 27 27 24 27 27 26 27 25 25 24 24 25 27 26 26 26 26 26 25 25
41 39 40 40 41 41 40 38 39 41 40 40 40 40 39 37 38 37 35 34 34 34 34 35 33 29 27 26 25 24 25 27 27 26 26 25 24 25 27 26 26 25 25 25 25
40 40 40 39 38 39 39 39 38 41 40 41 41 40 39 40 40 38 39 38 37 34 34 33 31 30 30 26 27 27 26 25 25 25 26 23 26 23 22 22 24 25 25 24 21
Lifted_Index
9 9 9 8 8 8 8 8 7 7 7 7 7 7 7 8 8 9 9 9 9 9 10 10 10 9 9 8 8 7 5 5 5 5 6 7 7 7 7 8 8 8 8 8 8
9 9 8 8 8 8 8 8 7 7 7 7 8 8 8 8 8 8 9 9 9 9 10 10 10 9 8 8 8 7 6 5 6 6 7 7 7 7 7 7 8 8 8 8 8
8 8 8 8 8 8 8 7 7 7 7 7 8 8 7 7 7 8 9 9 8 9 10 10 9 9 8 8 7 7 6 6 7 7 7 7 7 7 7 7 8 8 8 8 8
8 8 8 8 8 8 8 7 7 7 7 7 7 7 7 7 7 8 9 8 9 10 10 10 9 8 7 7 7 7 7 7 7 7 7 7 7 7 7 8 8 8 8 8 8
8 8 8 8 8 8 8 7 7 6 7 7 7 7 7 7 7 8 8 9 9 10 10 9 8 8 7 7 7 7 7 7 7 7 7 7 7 7 7 8 8 8 8 8 8
8 8 8 8 8 8 8 7 7 6 7 7 7 7 7 7 8 8 8 9 9 9 9 9 8 8 7 7 7 7 7 7 7 7 7 7 7 7 8 8 8 8 8 8 8
7 8 8 8 8 8 7 7 6 6 7 7 7 7 7 7 8 8 8 8 9 9 9 9 9 8 8 7 7 7 6 6 6 6 7 6 6 7 8 8 8 8 8 8 8
7 7 8 8 8 8 7 6 6 6 6 7 7 7 7 7 8 8 8 8 8 9 9 10 10 9 8 7 7 6 5 5 6 6 7 6 6 6 8 8 8 7 8 8 8
7 7 7 7 8 7 7 6 5 6 6 7 7 7 7 7 7 8 8 8 8 9 9 9 9 8 7 6 5 5 5 4 5 6 6 6 6 6 7 8 7 7 7 8 8
7 7 7 7 7 7 6 5 5 6 6 6 7 7 7 7 7 8 8 8 8 8 8 8 7 6 6 5 5 5 5 4 5 6 6 6 6 6 7 8 8 7 7 8 8
6 6 6 6 6 6 5 5 5 6 6 6 6 6 6 7 7 7 8 8 7 7 6 6 6 5 5 5 5 5 5 5 5 5 6 6 6 6 7 7 7 7 8 8 8
6 6 6 6 6 5 4 4 5 5 5 6 6 6 6 6 6 6 7 7 6 6 6 5 5 5 5 5 6 5 5 5 5 6 6 6 6 6 6 7 7 7 8 8 8
5 5 5 6 5 5 4 4 4 5 5 5 6 6 6 6 5 6 6 6 5 5 5 5 5 5 5 5 5 5 5 5 5 5 6 6 5 5 6 6 7 7 7 8 8
5 5 5 5 5 4 4 3 3 4 4 5 6 6 6 5 5 5 6 5 5 4 4 5 5 5 5 5 5 5 5 5 5 5 5 5 5 5 6 6 6 6 6 7 8
4 4 5 5 5 4 3 3 3 3 4 5 6 6 5 5 5 5 5 5 5 4 4 5 5 5 5 5 5 5 5 5 5 5 5 4 4 5 5 5 5 5 6 7 7
4 4 5 5 4 3 3 2 2 3 4 5 5 5 5 4 4 4 5 5 4 4 4 4 5 5 5 5 5 5 5 5 5 4 4 4 4 5 5 5 5 5 5 6 7
4 4 5 5 4 3 2 2 2 3 4 5 5 5 4 4 4 4 4 4 3 3 3 3 4 4 5 5 5 5 4 3 3 2 3 4 4 5 6 6 5 5 6 6 7
4 4 5 5 4 3 2 2 3 4 4 4 4 4 4 4 4 4 3 3 3 3 2 2 3 4 4 4 4 4 4 3 2 2 3 4 4 5 6 6 6 6 6 6 7
3 3 4 4 4 3 2 2 3 4 4 4 4 4 4 4 3 3 3 3 3 3 2 2 3 4 4 4 4 4 4 3 3 2 2 4 5 5 6 6 6 6 6 6 6
2 2 3 3 3 3 2 3 4 4 4 4 4 4 4 3 3 3 3 4 4 3 3 3 3 4 4 4 4 4 4 3 3 2 2 3 4 6 6 6 6 6 6 6 6
2 2 2 3 3 2 2 3 4 4 4 4 4 4 3 3 3 3 3 3 3 3 3 3 3 3 3 4 3 3 3 3 2 2 2 2 4 6 6 6 6 6 6 6 6
3 3 3 2 2 2 3 4 4 4 4 3 3 3 3 3 2 3 3 3 3 3 3 3 2 2 2 3 4 3 3 3 2 2 2 3 4 6 6 6 5 6 6 6 6
3 3 3 3 2 2 3 3 4 4 4 3 3 3 3 2 2 3 3 2 3 3 3 2 2 2 2 3 3 3 3 3 2 2 3 3 4 5 5 4 5 5 6 6 6
3 3 3 3 3 3 3 3 3 3 3 3 3 3 3 2 2 2 3 2 3 3 3 2 2 1 2 2 3 3 3 3 2 3 3 3 4 4 4 3 4 5 6 6 6
3 3 3 3 3 3 3 2 2 3 3 3 3 3 2 2 2 2 2 2 3 3 3 2 2 1 2 2 2 3 3 3 3 3 3 3 3 3 3 3 4 5 5 6 6
3 3 3 3 2 3 3 2 2 2 3 2 2 2 2 2 2 2 2 2 2 3 3 2 2 1 1 2 2 2 3 3 3 3 3 3 3 3 3 3 4 4 5 5 5
4 4 4 3 2 2 2 2 2 2 3 3 2 2 2 2 2 2 2 2 2 2 2 2 2 1 1 2 2 2 3 3 3 3 3 3 3 3 3 3 4 4 5 5 5